sat.trackr.live / text

‹ back to catalog

STARLINK-5830

NORAD 57065 · 2023-088T

PAYLOAD ACTIVE UNKNOWN

§ Identity

Operator
Country
US
Launch date
2023-06-22
Launch site
AFWTR
Launch vehicle
Mass (kg)
RCS (m²)

Purposes: comms

External: N2YO · Heavens-Above · Gunter

§ Orbital elements

Epoch: 2026-05-25T01:46:07.394880Z

Period
94.32 min
Inclination
43.0035°
Eccentricity
0.0000873
Mean motion
15.26745290 rev/d
Perigee alt
485.0 km
Apogee alt
486.1 km
Semi-major
6,863.7 km
B*
4.9931e-5
RAAN
42.7181°
Arg perigee
257.8525°
Mean anomaly
102.2229°
Rev number
16,099

§ Raw data

STARLINK-58301 57065U 23088T   26145.07369670  .00001080  00000+0  49931-4 0  99982 57065  43.0035  42.7181 0000873 257.8525 102.2229 15.26745290160999

JSON: /api/v1/satellites/57065 · /tle

For live sub-satellite position, see the globe view (requires WebGL).

§ Visibility from observer

Set your observer location to see the next 7 days of passes ≥ 10°. The values pass through the URL so the page stays shareable.

No JS? Fill the form by hand. The geolocation button needs JavaScript.